Location: T�chigga el Be�da
(16.4766°N, 9.3887°W)
Time: 13:58:29
(UTC+00:00)

APEX - Pass Details

Date: 27 February 2020
Orbit: 330 x 1120 km, 69.9° (Epoch: 29 March)

Event Time Altitude Azimuth Distance (km) Brightness Sun altitude
Rises 19:30:34 0° 204° (SSW) 2,520 7.1 -11.9°
Reaches altitude 10° 19:32:29 10° 207° (SSW) 1,742 6.3 -12.4°
Maximum altitude 19:36:19 66° 289° (WNW) 664 3.9 -13.3°
Drops below altitude 10° 19:41:16 10° 12° (NNE) 2,226 6.2 -14.5°
Sets 19:43:58 0° 15° (NNE) 3,297 7.1 -15.1°
